Location: Unspecified
(0.0000°N, 0.0000°E)
Time: 13:39:25
(UTC+00:00)

STARLINK-35347 - Pass Details

Date: 23 February 2026
Orbit: 474 x 476 km, 53.2° (Epoch: 14 March)

Event Time Altitude Azimuth Distance (km) Brightness Sun altitude
Rises 19:35:40 0° 243° (WSW) 2,513 7.3 -20.3°
Reaches altitude 10° 19:38:29 10° 266° (W) 1,632 6.2 -21.0°
Maximum altitude 19:40:46 16° 304° (NW) 1,316 5.1 -21.5°
Drops below altitude 10° 19:43:03 10° 343° (NNW) 1,626 5.1 -22.1°
Enters shadow 19:43:37 - 349° (N) 1,774 5.2 -22.2°
